Theta_e
319 312 309 307 299 296 292 295 301 301 303 309 313 310 308 310 308 302 327 331 336 336 341 343 347 348 347 348 348 348 349 347 344 342 341 340 339 339 338 338 339 339 342 342 340 338 338 337 337
311 312 309 301 294 288 291 296 300 302 311 314 315 313 311 306 319 325 327 336 337 338 338 340 344 347 346 346 346 347 347 347 344 342 340 339 339 338 338 337 338 340 340 339 338 339 337 336 336
312 309 304 296 292 290 291 297 300 306 313 307 312 314 312 312 323 327 329 335 335 335 336 338 343 347 346 347 346 346 346 347 345 342 340 339 338 337 337 337 337 340 339 338 338 339 337 334 334
309 307 303 295 292 294 296 300 304 306 305 311 312 308 314 323 324 328 333 333 333 332 333 338 344 346 347 347 346 346 346 345 345 343 340 338 337 336 336 336 336 338 339 336 338 338 336 334 332
309 302 297 293 292 294 298 304 305 302 303 307 310 307 309 320 329 331 330 331 330 330 332 335 341 343 346 346 346 346 346 345 344 344 341 338 337 336 335 335 336 336 337 336 337 336 335 333 332
308 301 294 292 294 296 301 305 305 301 306 307 309 309 310 321 326 327 328 327 328 331 331 333 333 336 340 343 344 344 344 343 343 343 342 339 338 336 336 335 334 334 335 335 335 335 334 333 332
305 300 296 297 296 296 301 304 301 305 308 308 315 309 311 318 324 326 325 327 329 329 329 328 329 331 332 335 337 339 341 341 341 342 342 340 338 338 336 336 334 333 333 334 333 333 333 333 332
309 302 300 298 295 295 299 302 302 305 306 314 315 307 308 320 325 324 326 328 330 326 326 326 326 327 327 327 330 333 335 336 336 335 334 333 333 334 333 331 334 332 332 332 332 332 332 332 331
314 303 299 300 297 296 300 300 302 307 311 310 315 313 315 323 324 322 323 325 327 328 324 324 324 324 324 326 325 328 329 330 328 327 326 326 327 327 327 328 332 333 332 331 330 329 328 326 329
309 302 302 308 306 298 302 299 303 306 307 307 309 315 321 323 322 320 319 320 322 323 326 323 323 323 324 327 324 325 325 323 322 321 322 324 324 324 325 323 327 329 328 331 329 327 324 320 317
308 303 309 310 311 312 302 298 301 304 302 305 310 313 318 320 320 319 318 320 321 323 324 324 322 323 323 323 322 321 320 319 319 319 319 320 321 321 320 320 319 318 316 316 317 317 316 316 315
305 310 311 311 313 311 304 298 298 303 304 304 311 317 318 320 320 320 318 318 319 320 323 326 323 322 321 321 320 320 319 318 317 318 319 318 317 317 316 317 316 314 314 313 314 314 314 314 315
304 308 310 311 310 311 309 304 298 300 304 308 316 318 317 319 320 321 321 320 318 318 320 324 322 322 322 321 320 319 318 318 317 318 319 319 317 316 315 315 315 314 314 314 313 312 312 312 312
306 308 308 310 309 309 306 299 296 300 306 312 316 316 316 317 320 319 319 320 320 320 319 322 323 323 323 321 320 320 318 318 317 318 319 319 318 316 316 315 315 315 315 315 313 311 311 311 311
307 302 305 307 308 306 303 297 296 300 309 311 313 314 317 317 316 317 321 322 322 322 320 321 322 323 323 322 321 321 320 319 317 318 319 319 319 317 316 315 314 315 316 314 313 311 310 310 312
300 299 296 304 306 305 304 298 305 300 304 307 311 311 314 316 318 317 318 321 323 323 322 322 324 323 322 323 323 322 321 321 320 319 320 320 319 318 316 314 314 314 314 313 311 310 310 311 311
294 288 292 298 303 300 300 296 303 305 302 301 308 311 313 315 317 319 319 319 321 323 323 323 323 323 323 323 322 322 321 321 321 320 321 320 320 319 317 316 315 314 312 311 310 311 312 311 311
288 289 291 295 300 298 296 298 300 301 296 298 299 308 312 314 317 321 321 321 319 322 324 324 324 324 324 324 323 321 320 322 322 322 321 320 321 321 319 318 317 315 312 311 310 311 311 312 313
293 292 293 297 301 296 294 298 302 301 298 299 297 295 307 312 318 319 321 322 320 319 320 323 323 324 324 323 322 320 320 321 322 323 322 321 321 321 321 320 318 315 314 313 312 312 312 314 316
295 292 292 297 300 295 294 294 300 300 299 300 301 300 298 303 309 314 318 320 322 321 321 321 324 324 324 325 325 323 324 323 323 323 323 323 322 321 321 321 320 317 315 313 312 312 311 312 314
296 293 292 294 296 296 292 293 297 298 298 299 300 302 302 302 302 303 312 319 321 321 321 322 322 324 324 326 325 320 320 317 320 321 322 322 323 322 322 321 322 319 318 316 314 313 313 314 313
292 298 296 296 292 289 294 288 293 297 298 299 301 302 302 302 303 303 302 311 319 321 323 323 323 322 323 325 325 323 323 322 323 323 323 323 323 323 324 323 322 321 319 318 317 316 316 317 316
295 299 296 296 292 292 291 288 290 294 293 295 297 301 304 305 305 305 304 305 316 321 322 322 322 322 323 323 324 323 322 323 323 321 319 322 321 322 322 323 323 322 321 320 319 314 315 318 319
302 298 298 297 295 286 292 290 288 291 294 295 298 301 303 305 305 306 305 303 309 317 320 321 321 321 322 321 322 321 321 321 319 319 319 318 320 320 321 321 321 322 322 321 319 319 317 317 318
300 295 286 285 283 283 291 290 293 294 295 298 301 301 301 301 302 303 301 300 305 311 316 318 319 319 320 320 320 321 321 321 320 319 319 318 318 318 319 319 320 321 322 322 321 319 318 317 318
295 295 285 280 282 283 284 287 291 298 303 302 297 297 295 294 297 300 302 302 304 308 313 317 318 319 318 319 320 321 321 321 321 320 319 319 319 320 319 319 320 320 321 321 321 321 321 320 318
295 292 293 283 272 277 282 286 290 293 293 294 294 296 295 294 295 296 296 297 298 304 310 314 316 318 318 318 319 319 320 320 320 319 319 319 319 319 318 319 319 320 320 320 321 322 321 321 320
298 300 289 287 278 274 280 281 288 290 295 297 295 294 298 294 292 293 295 295 295 296 303 309 313 316 317 318 318 318 318 318 320 317 317 318 319 318 318 319 319 319 319 320 321 322 322 321 321
295 293 294 293 284 278 275 283 287 293 294 295 298 295 297 297 293 291 291 290 293 294 294 302 307 309 310 313 314 315 317 317 318 319 319 319 319 318 319 319 320 322 321 321 321 320 321 320 320
296 294 295 288 282 281 280 285 287 293 294 292 293 294 294 295 293 290 291 291 292 293 294 298 302 305 307 308 310 311 312 313 314 317 317 318 320 320 322 321 321 321 321 321 320 319 315 317 316
Wind_Speed
6 5 3 5 5 6 1 3 2 2 1 1 3 4 5 3 3 4 1 1 6 5 6 6 8 9 10 11 11 12 14 17 17 15 16 16 16 15 15 14 13 14 15 16 16 17 17 16 17
4 5 5 2 6 3 4 3 6 5 4 6 5 3 3 1 2 5 5 6 6 6 5 5 8 8 10 11 10 11 13 15 16 16 15 15 15 14 14 14 13 13 14 14 14 16 16 16 17
3 5 4 5 3 3 4 4 4 3 7 2 3 3 3 3 2 7 4 8 8 6 5 6 7 9 10 10 11 11 13 14 15 15 14 15 14 14 13 13 13 13 14 14 14 17 16 16 16
5 6 4 4 2 4 4 5 4 6 2 3 3 4 1 3 7 6 8 7 10 6 4 7 8 8 9 11 12 12 12 13 13 14 14 14 13 12 12 13 12 12 13 14 15 16 16 15 15
5 3 3 2 4 4 3 5 7 4 3 3 3 4 3 2 5 11 9 6 8 7 4 5 7 8 10 11 13 14 13 12 12 12 14 14 13 12 12 12 11 12 13 13 14 13 14 14 14
4 3 3 2 4 4 1 5 7 3 2 2 4 5 2 0 8 6 8 7 4 9 6 5 6 6 7 9 12 13 15 12 10 10 13 14 13 12 12 12 12 12 12 13 13 12 13 13 13
6 2 2 2 3 3 2 5 4 5 4 4 7 6 1 2 5 7 7 7 4 6 7 5 5 5 5 6 7 11 13 10 8 9 12 13 12 12 11 10 11 11 11 12 12 12 11 11 12
6 4 3 2 2 4 3 4 3 5 4 1 3 4 4 5 8 8 7 9 8 4 6 6 5 4 4 3 7 9 10 9 8 9 10 10 11 10 10 8 8 9 9 10 10 11 11 9 10
5 4 3 3 3 4 1 3 2 2 6 1 4 4 2 14 12 9 8 7 7 4 3 5 6 5 4 4 3 5 8 5 7 7 9 7 4 5 6 6 7 7 7 8 9 9 9 9 7
3 4 5 3 2 4 3 3 7 4 3 3 2 2 7 14 13 13 13 11 11 12 7 5 6 6 6 3 3 4 4 4 4 5 6 4 5 4 4 5 6 5 5 5 7 8 9 7 4
5 7 5 3 1 2 6 2 3 7 3 8 9 7 9 11 10 10 9 11 14 12 9 8 7 7 7 5 4 2 2 2 2 4 4 4 3 3 3 2 2 3 5 4 5 5 4 4 2
4 3 8 3 4 6 7 7 3 6 7 2 9 11 12 16 15 15 14 13 13 10 12 12 6 6 5 4 3 4 3 3 3 3 4 3 2 3 2 2 3 2 1 1 2 1 2 2 2
3 2 4 5 6 5 6 8 5 7 9 3 7 12 15 14 13 10 7 5 7 10 9 11 7 7 6 6 4 4 4 4 4 4 4 4 3 2 2 2 2 3 2 1 1 0 0 1 1
6 5 5 3 5 4 5 4 3 6 4 4 9 13 13 15 16 8 8 10 11 10 11 9 10 7 6 5 6 5 4 4 4 4 4 5 4 4 4 4 3 3 3 2 2 2 1 1 1
4 4 2 6 5 5 3 8 11 5 4 6 8 7 9 11 9 16 14 13 12 8 8 11 10 9 9 7 6 4 4 5 4 4 6 6 5 5 5 4 4 4 3 2 1 1 1 1 1
6 3 4 5 10 6 9 9 6 7 7 9 9 8 9 11 14 11 9 11 10 9 12 10 10 10 9 9 7 6 5 5 5 5 4 6 6 6 5 4 4 3 3 3 2 3 2 2 3
3 5 6 3 10 4 8 6 7 8 9 9 9 9 9 9 10 10 12 13 11 13 11 11 11 12 12 9 7 6 6 5 5 4 5 6 6 6 5 4 4 4 4 4 3 3 3 2 3
8 6 4 9 5 5 6 12 12 2 6 11 9 9 10 12 19 15 12 10 9 12 12 12 11 12 11 8 7 4 4 5 5 6 6 6 5 6 5 4 5 5 4 4 3 4 3 3 3
7 2 11 4 4 2 9 16 17 11 6 8 9 8 11 14 15 8 11 9 8 9 11 14 13 14 10 8 8 6 8 6 6 6 7 8 7 8 8 6 6 4 5 5 5 3 5 4 3
6 8 8 3 4 6 6 18 15 9 8 10 13 11 14 11 9 10 10 12 15 15 16 15 15 14 13 10 8 5 7 5 6 7 9 9 9 8 8 8 7 6 4 5 5 5 2 3 4
18 17 7 4 3 5 5 11 14 9 9 9 8 12 9 14 16 13 11 15 15 17 17 17 17 16 14 14 7 2 2 1 3 5 6 8 10 10 11 10 8 6 6 6 6 6 7 5 3
21 13 7 7 4 7 5 11 11 10 15 14 16 15 16 13 12 12 13 13 16 18 17 18 16 16 14 16 11 14 11 11 9 8 7 8 11 12 11 10 8 8 6 7 7 7 7 7 8
13 11 10 7 7 3 5 6 7 8 10 9 12 16 17 18 18 19 18 16 15 16 16 16 16 15 16 16 16 12 13 10 7 6 7 9 8 10 9 10 9 9 7 9 9 6 9 7 8
5 11 5 3 9 11 14 12 6 10 11 7 9 17 18 18 17 17 13 11 11 12 12 12 15 17 16 16 17 16 17 14 8 8 7 6 6 6 9 8 9 8 9 10 9 10 10 10 10
11 14 6 8 5 11 11 13 21 7 6 11 15 16 15 12 14 14 12 11 13 13 14 13 15 16 15 17 16 18 18 14 14 10 9 8 6 5 8 10 10 9 11 10 9 10 11 10 10
30 13 3 10 7 10 5 14 9 13 19 21 12 9 6 9 11 14 15 13 14 15 14 15 15 16 15 16 17 16 15 10 10 9 8 8 8 8 7 9 10 11 11 10 9 9 9 9 10
7 16 8 5 4 3 7 10 10 9 10 11 12 9 10 10 9 14 9 10 10 10 14 15 14 14 14 16 13 13 12 12 11 9 9 7 6 6 8 10 11 10 9 10 10 9 11 11 12
16 10 12 4 6 4 7 8 13 12 19 15 14 13 13 9 7 7 8 8 7 8 7 8 9 13 12 11 10 10 11 9 9 6 9 10 8 8 8 9 9 8 9 10 11 10 11 12 10
11 10 8 5 5 7 4 10 8 14 12 11 16 10 11 11 9 7 5 3 4 3 6 7 7 8 7 8 8 8 9 9 9 9 9 10 8 7 8 9 10 11 10 10 9 10 9 9 10
18 19 21 7 5 4 0 16 4 9 7 3 9 7 6 8 8 5 4 3 2 2 4 6 6 7 7 6 6 7 6 6 6 7 5 5 8 7 9 8 8 8 8 7 8 8 5 8 7
Wind_Direction
331 355 68 41 53 64 224 231 142 135 155 304 95 143 177 108 167 197 87 153 138 127 124 116 112 116 118 118 118 118 114 110 105 99 99 98 96 97 97 96 96 102 100 88 87 92 90 87 86
341 19 41 70 84 65 265 267 171 186 143 120 76 60 69 156 110 125 116 144 119 123 118 123 123 126 122 121 123 119 121 116 113 109 107 106 103 102 103 104 102 102 98 89 88 96 89 87 88
61 45 65 81 101 170 210 216 156 117 153 54 99 46 153 178 154 153 130 137 116 114 122 128 122 134 131 127 129 123 122 119 117 116 114 108 106 104 104 104 108 101 98 91 91 97 91 86 89
24 11 37 76 244 248 192 172 148 127 239 103 115 90 11 210 155 164 137 130 123 116 127 134 129 121 137 133 129 119 116 121 120 122 113 111 105 104 101 102 105 100 93 87 87 96 87 86 91
41 54 29 26 280 288 266 152 144 159 152 141 145 192 124 16 98 128 127 130 134 121 119 120 124 116 118 131 131 124 115 109 117 119 122 117 112 107 103 99 98 98 98 88 84 88 92 92 92
49 81 40 268 281 306 282 168 146 145 146 157 101 123 149 300 126 139 126 124 138 129 125 105 105 104 110 122 122 122 111 99 103 113 133 127 117 109 100 96 96 97 98 94 91 95 99 95 96
96 44 243 283 290 306 169 149 161 151 152 236 158 130 314 186 129 126 119 117 130 130 122 119 119 114 118 112 116 108 104 103 97 106 135 129 122 118 112 105 102 102 105 103 99 95 98 101 101
106 107 293 254 253 261 333 169 116 149 200 71 154 188 206 185 138 110 108 141 148 123 126 129 117 116 112 122 119 110 109 123 120 110 102 97 105 111 107 92 96 98 101 106 100 91 84 94 105
149 75 284 257 148 256 263 185 137 97 116 247 189 166 260 133 129 116 137 151 147 132 137 136 131 111 76 74 78 81 91 87 82 85 93 90 92 97 99 112 105 109 108 105 98 91 78 76 103
111 132 221 340 351 310 287 194 171 137 136 233 234 58 113 138 151 156 164 173 181 176 171 162 143 140 129 119 126 130 132 140 136 130 124 122 123 114 104 95 100 94 91 81 71 60 65 61 67
308 169 144 275 290 290 293 272 186 128 234 224 202 160 153 157 164 171 177 175 186 188 180 176 172 170 163 156 147 128 117 117 107 128 124 122 116 137 129 114 67 41 38 36 28 29 49 76 85
262 268 143 269 14 352 311 322 256 192 219 288 212 156 157 172 185 185 189 185 175 183 191 187 181 160 164 139 156 158 161 170 164 177 158 142 143 140 138 151 146 122 109 103 77 40 22 53 81
198 209 248 151 322 325 294 269 261 244 240 359 139 155 178 178 198 192 193 184 174 184 187 194 175 174 169 170 162 166 181 180 184 175 180 156 152 171 157 189 186 177 159 184 188 83 336 3 2
201 181 267 284 258 266 274 277 171 268 124 127 161 184 186 186 196 179 184 192 195 194 190 185 187 182 172 179 177 187 175 185 188 184 189 185 177 181 187 194 209 220 201 199 183 206 232 263 287
154 157 286 233 196 239 344 267 220 213 147 174 206 201 196 203 184 202 199 197 195 200 186 187 188 180 178 183 187 185 192 181 188 199 193 195 193 195 197 199 202 214 210 207 186 242 240 272 268
146 143 208 250 177 219 137 269 290 182 165 215 213 220 213 210 210 202 196 204 193 189 190 186 186 191 189 189 190 189 188 192 196 192 196 199 201 194 193 207 219 207 197 190 198 207 233 240 242
228 197 208 288 209 143 175 261 273 196 187 227 214 214 221 230 232 212 203 195 191 194 187 189 187 189 188 193 188 199 193 193 202 191 200 205 202 196 196 202 222 201 203 203 200 210 196 215 246
189 192 204 214 214 235 213 222 249 233 189 225 231 221 215 225 232 216 209 198 189 195 192 193 191 195 194 190 191 175 182 205 198 207 206 192 199 197 198 203 216 200 199 217 206 209 205 218 229
149 197 225 174 206 175 233 247 240 216 204 239 241 233 232 228 237 215 207 195 186 191 189 194 190 196 181 189 191 198 211 206 211 206 198 197 200 198 200 209 213 194 201 207 194 186 215 249 220
229 213 231 274 198 181 257 253 251 244 222 217 225 230 227 242 231 224 197 195 199 200 202 200 202 193 193 195 203 195 192 209 210 201 207 204 203 203 205 208 211 198 195 198 194 184 200 238 185
229 223 200 224 135 213 318 263 258 251 234 228 234 235 225 221 231 229 206 203 199 208 205 204 202 198 197 196 185 124 106 77 188 206 212 209 203 205 206 207 210 197 197 204 203 197 193 228 211
218 200 196 198 175 246 153 275 247 229 231 223 229 229 232 219 229 231 221 211 201 210 205 210 202 198 196 193 191 200 210 218 217 216 211 206 206 215 212 208 204 203 200 208 210 202 209 215 239
227 187 186 176 202 205 220 268 253 193 230 239 221 234 232 226 222 227 225 212 207 207 203 202 202 200 196 193 197 199 212 220 215 202 191 209 207 214 213 209 207 210 206 217 210 195 208 211 231
148 185 146 152 202 233 218 216 224 219 212 234 221 231 227 222 223 231 222 207 209 205 198 192 194 204 197 195 200 200 212 214 202 202 202 200 204 205 213 206 209 211 216 216 211 216 213 214 226
211 179 190 195 204 235 189 211 246 250 245 229 229 230 230 219 225 222 201 198 201 192 192 185 190 202 198 196 198 206 213 209 213 205 204 197 199 199 205 199 206 215 220 220 211 213 219 213 223
203 194 192 194 182 226 134 231 239 228 240 242 238 239 241 237 228 226 216 206 202 199 191 189 190 202 193 196 203 210 211 212 215 204 199 209 208 208 189 200 209 217 218 215 212 221 227 219 224
197 206 171 103 351 76 199 274 303 274 273 260 257 248 243 240 239 232 213 203 201 191 191 190 190 199 196 198 200 205 207 207 209 203 194 203 207 199 195 201 209 215 214 214 212 224 229 224 227
224 187 192 177 168 231 245 261 236 209 223 241 237 226 235 245 260 252 231 215 205 193 188 185 190 197 195 193 192 196 199 198 207 176 196 201 205 199 197 207 211 214 215 215 214 223 228 230 232
210 209 224 192 168 198 229 249 198 201 221 224 244 229 221 222 223 223 228 218 187 162 184 196 186 179 179 179 177 174 187 192 192 200 207 210 208 198 203 205 213 221 222 224 221 227 232 230 232
228 223 213 227 202 231 237 258 201 216 235 334 292 293 217 221 202 190 216 185 175 159 149 181 172 178 186 176 173 185 168 172 186 203 204 192 210 207 213 215 223 226 222 214 220 231 214 231 239